| time (UTC) | temp C | wind direction | speed KPH | gust KPH | rain 1hr cm | rain 24hr cm | rain mn cm | humidity % | barometer mb |
| 20260508171605 | 12 | 233 | 4.8 | 8.0 | 0.00 | 0.00 | 0.00 | 94 | 1004.1 |
| 20260508170406 | 12 | 223 | 0.0 | 0.0 | 0.00 | 0.00 | 0.00 | 93 | 1003.7 |
| 20260508165209 | 12 | 236 | 3.2 | 4.8 | 0.00 | 0.00 | 0.00 | 93 | 1003.8 |
| 20260508164007 | 12 | 244 | 0.0 | 1.6 | 0.00 | 0.00 | 0.00 | 93 | 1003.7 |
| 20260508162805 | 13 | 251 | 1.6 | 1.6 | 0.00 | 0.00 | 0.00 | 92 | 1003.7 |
| 20260508161606 | 13 | 234 | 1.6 | 3.2 | 0.00 | 0.00 | 0.00 | 90 | 1003.7 |
| 20260508160407 | 13 | 250 | 1.6 | 3.2 | 0.00 | 0.00 | 0.00 | 88 | 1003.3 |
| 20260508155206 | 13 | 283 | 0.0 | 0.0 | 0.00 | 0.00 | 0.00 | 86 | 1003.2 |
| 20260508154005 | 14 | 345 | 4.8 | 8.0 | 0.00 | 0.00 | 0.00 | 84 | 1003.3 |
| 20260508152805 | 14 | 77 | 0.0 | 0.0 | 0.00 | 0.00 | 0.00 | 83 | 1003.4 |
| 20260508151604 | 15 | 125 | 0.0 | 0.0 | 0.00 | 0.00 | 0.00 | 79 | 1003.4 |
| 20260508150406 | 15 | 31 | 0.0 | 0.0 | 0.00 | 0.00 | 0.00 | 77 | 1003.4 |
| 20260508145206 | 15 | 27 | 3.2 | 8.0 | 0.00 | 0.00 | 0.00 | 76 | 1003.4 |
| 20260508144006 | 16 | 30 | 4.8 | 8.0 | 0.00 | 0.00 | 0.00 | 76 | 1003.2 |
| 20260508142808 | 16 | 42 | 4.8 | 8.0 | 0.00 | 0.00 | 0.00 | 76 | 1002.9 |
| 20260508141605 | 16 | 72 | 4.8 | 8.0 | 0.00 | 0.00 | 0.00 | 77 | 1002.8 |
| 20260508140405 | 17 | 33 | 12.9 | 16.1 | 0.00 | 0.00 | 0.00 | 76 | 1002.6 |
| 20260508135206 | 17 | 45 | 8.0 | 9.7 | 0.00 | 0.00 | 0.00 | 78 | 1002.4 |
| 20260508134005 | 18 | 81 | 8.0 | 19.3 | 0.00 | 0.00 | 0.00 | 80 | 1002.1 |
| 20260508132805 | 18 | 29 | 3.2 | 4.8 | 0.00 | 0.00 | 0.00 | 83 | 1002.0 |
| 20260508131605 | 18 | 52 | 1.6 | 3.2 | 0.00 | 0.00 | 0.00 | 84 | 1002.0 |
| 20260508130406 | 18 | 3 | 3.2 | 8.0 | 0.00 | 0.00 | 0.00 | 84 | 1001.7 |
| 20260508125206 | 18 | 18 | 4.8 | 9.7 | 0.00 | 0.00 | 0.00 | 83 | 1001.6 |
| 20260508124004 | 19 | 22 | 4.8 | 9.7 | 0.00 | 0.00 | 0.00 | 84 | 1001.8 |
| 20260508122806 | 18 | 73 | 4.8 | 9.7 | 0.00 | 0.00 | 0.00 | 95 | 1001.7 |
| 20260508121606 | 18 | 293 | 3.2 | 4.8 | 0.00 | 0.00 | 0.00 | 94 | 1001.6 |
| 20260508120404 | 19 | 188 | 3.2 | 4.8 | 0.00 | 0.00 | 0.00 | 94 | 1001.7 |
| 20260508115204 | 19 | 325 | 1.6 | 3.2 | 0.00 | 0.00 | 0.00 | 94 | 1001.5 |
| 20260508114006 | 19 | 189 | 1.6 | 1.6 | 0.00 | 0.00 | 0.00 | 93 | 1001.5 |
| 20260508112806 | 19 | 253 | 1.6 | 3.2 | 0.00 | 0.00 | 0.00 | 93 | 1001.3 |
| 20260508111604 | 20 | 286 | 0.0 | 1.6 | 0.00 | 0.00 | 0.00 | 92 | 1001.2 |
| 20260508110406 | 20 | 208 | 1.6 | 3.2 | 0.00 | 0.00 | 0.00 | 91 | 1001.2 |
| 20260508105206 | 20 | 248 | 0.0 | 1.6 | 0.00 | 0.00 | 0.00 | 91 | 1001.2 |
| 20260508104005 | 20 | 296 | 1.6 | 3.2 | 0.00 | 0.00 | 0.00 | 92 | 1001.0 |
| 20260508102805 | 20 | 209 | 3.2 | 3.2 | 0.00 | 0.00 | 0.00 | 91 | 1001.1 |
| 20260508101606 | 20 | 260 | 1.6 | 4.8 | 0.00 | 0.00 | 0.00 | 91 | 1000.9 |
| 20260508100404 | 20 | 215 | 4.8 | 4.8 | 0.00 | 0.00 | 0.00 | 91 | 1000.7 |
| 20260508095205 | 21 | 249 | 0.0 | 0.0 | 0.00 | 0.00 | 0.00 | 89 | 1000.6 |
| 20260508094005 | 21 | 303 | 1.6 | 1.6 | 0.00 | 0.00 | 0.00 | 89 | 1000.7 |
| 20260508092806 | 21 | 227 | 1.6 | 1.6 | 0.00 | 0.00 | 0.00 | 87 | 1000.5 |
| 20260508091608 | 21 | 226 | 0.0 | 0.0 | 0.00 | 0.00 | 0.00 | 86 | 1000.7 |
| 20260508090404 | 22 | 226 | 1.6 | 3.2 | 0.00 | 0.00 | 0.00 | 85 | 1000.8 |
| 20260508085205 | 22 | 251 | 0.0 | 1.6 | 0.00 | 0.00 | 0.00 | 83 | 1000.3 |
| 20260508084007 | 22 | 351 | 0.0 | 1.6 | 0.00 | 0.00 | 0.00 | 82 | 1000.5 |
| 20260508082805 | 22 | 330 | 3.2 | 8.0 | 0.00 | 0.00 | 0.00 | 81 | 1000.8 |
| 20260508081604 | 22 | 336 | 4.8 | 11.3 | 0.00 | 0.00 | 0.00 | 81 | 1000.8 |
| 20260508080405 | 22 | 315 | 1.6 | 1.6 | 0.00 | 0.00 | 0.00 | 79 | 1000.6 |
| 20260508075203 | 23 | 306 | 0.0 | 0.0 | 0.00 | 0.00 | 0.00 | 78 | 1000.6 |
| 20260508074005 | 23 | 328 | 3.2 | 4.8 | 0.00 | 0.00 | 0.00 | 78 | 1000.6 |
| 20260508072807 | 23 | 48 | 0.0 | 3.2 | 0.00 | 0.00 | 0.00 | 77 | 1000.9 |
| 20260508071605 | 23 | 45 | 1.6 | 4.8 | 0.00 | 0.00 | 0.00 | 75 | 1001.1 |
| 20260508070404 | 23 | 356 | 3.2 | 8.0 | 0.00 | 0.00 | 0.00 | 77 | 1001.1 |
| 20260508065205 | 23 | 356 | 1.6 | 3.2 | 0.00 | 0.00 | 0.00 | 77 | 1001.7 |
| 20260508064004 | 22 | 298 | 3.2 | 8.0 | 0.00 | 0.00 | 0.00 | 79 | 1001.6 |
| 20260508062804 | 23 | 39 | 0.0 | 0.0 | 0.00 | 0.00 | 0.00 | 76 | 1001.8 |
| 20260508061604 | 23 | 24 | 1.6 | 3.2 | 0.00 | 0.00 | 0.00 | 77 | 1001.8 |
| 20260508060405 | 22 | 43 | 3.2 | 8.0 | 0.00 | 0.00 | 0.00 | 78 | 1001.9 |
| 20260508055204 | 22 | 21 | 0.0 | 3.2 | 0.00 | 0.00 | 0.00 | 78 | 1002.3 |
| 20260508054005 | 22 | 11 | 8.0 | 9.7 | 0.00 | 0.00 | 0.00 | 78 | 1002.1 |
| 20260508052803 | 22 | 77 | 14.5 | 19.3 | 0.00 | 0.00 | 0.00 | 77 | 1002.3 |
| 20260508051605 | 22 | 10 | 1.6 | 3.2 | 0.00 | 0.00 | 0.00 | 80 | 1002.7 |
| 20260508050403 | 23 | 81 | 1.6 | 3.2 | 0.00 | 0.00 | 0.00 | 78 | 1003.0 |
| 20260508045204 | 22 | 298 | 3.2 | 8.0 | 0.00 | 0.00 | 0.00 | 83 | 1003.1 |
| 20260508044004 | 21 | 97 | 0.0 | 3.2 | 0.00 | 0.00 | 0.00 | 82 | 1003.3 |
| 20260508042803 | 21 | 83 | 4.8 | 8.0 | 0.00 | 0.00 | 0.00 | 83 | 1003.6 |
| 20260508041604 | 22 | 354 | 0.0 | 1.6 | 0.00 | 0.00 | 0.00 | 82 | 1003.7 |
| 20260508040405 | 22 | 26 | 1.6 | 3.2 | 0.00 | 0.00 | 0.00 | 82 | 1003.9 |
| 20260508035204 | 22 | 31 | 3.2 | 4.8 | 0.00 | 0.00 | 0.00 | 81 | 1004.0 |
| 20260508034007 | 22 | 16 | 1.6 | 4.8 | 0.00 | 0.00 | 0.00 | 83 | 1004.2 |
| 20260508032805 | 22 | 29 | 4.8 | 12.9 | 0.00 | 0.00 | 0.00 | 84 | 1004.7 |
| 20260508031604 | 21 | 47 | 9.7 | 14.5 | 0.00 | 0.00 | 0.00 | 85 | 1005.0 |
| 20260508030405 | 21 | 77 | 4.8 | 8.0 | 0.00 | 0.00 | 0.00 | 84 | 1005.3 |
| 20260508025204 | 21 | 22 | 4.8 | 9.7 | 0.00 | 0.00 | 0.00 | 83 | 1005.4 |
| 20260508024004 | 21 | 86 | 8.0 | 11.3 | 0.00 | 0.00 | 0.00 | 83 | 1005.4 |
| 20260508022807 | 21 | 60 | 3.2 | 8.0 | 0.00 | 0.00 | 0.00 | 82 | 1005.7 |
| 20260508021605 | 21 | 19 | 4.8 | 9.7 | 0.00 | 0.00 | 0.00 | 82 | 1005.6 |
| 20260508020404 | 21 | 36 | 3.2 | 4.8 | 0.00 | 0.00 | 0.00 | 83 | 1005.7 |
| 20260508015205 | 21 | 85 | 3.2 | 8.0 | 0.00 | 0.00 | 0.00 | 85 | 1005.8 |
| 20260508014004 | 21 | 39 | 8.0 | 11.3 | 0.00 | 0.00 | 0.00 | 82 | 1005.8 |
| 20260508012805 | 21 | 109 | 3.2 | 4.8 | 0.00 | 0.00 | 0.00 | 81 | 1005.9 |
| 20260508011603 | 20 | 40 | 8.0 | 9.7 | 0.00 | 0.00 | 0.00 | 82 | 1005.8 |
| 20260508010405 | 20 | 22 | 1.6 | 4.8 | 0.00 | 0.00 | 0.00 | 82 | 1005.9 |
| 20260508005208 | 20 | 286 | 3.2 | 3.2 | 0.00 | 0.00 | 0.00 | 83 | 1006.4 |
| 20260508004004 | 20 | 286 | 1.6 | 4.8 | 0.00 | 0.00 | 0.00 | 82 | 1006.5 |
| 20260508002804 | 19 | 285 | 3.2 | 4.8 | 0.00 | 0.00 | 0.00 | 84 | 1006.7 |
| 20260508001605 | 19 | 285 | 1.6 | 4.8 | 0.00 | 0.00 | 0.00 | 84 | 1007.2 |
| 20260508000407 | 19 | 285 | 0.0 | 0.0 | 0.00 | 0.00 | 0.00 | 86 | 1007.4 |
| 20260507235204 | 19 | 282 | 1.6 | 4.8 | 0.00 | 0.00 | 0.00 | 85 | 1007.3 |
| 20260507234008 | 18 | 252 | 0.0 | 1.6 | 0.00 | 0.00 | 0.00 | 86 | 1007.3 |
| 20260507232806 | 17 | 245 | 3.2 | 4.8 | 0.00 | 0.00 | 0.00 | 89 | 1007.2 |
| 20260507231606 | 17 | 259 | 1.6 | 3.2 | 0.00 | 0.00 | 0.00 | 92 | 1007.4 |
| 20260507230406 | 16 | 217 | 1.6 | 3.2 | 0.00 | 0.00 | 0.00 | 96 | 1007.4 |
| 20260507225206 | 16 | 265 | 0.0 | 1.6 | 0.00 | 0.00 | 0.00 | 96 | 1007.2 |
| 20260507224006 | 16 | 264 | 0.0 | 0.0 | 0.00 | 0.00 | 0.00 | 96 | 1007.1 |
| 20260507222809 | 16 | 220 | 3.2 | 3.2 | 0.00 | 0.00 | 0.00 | 96 | 1007.3 |
| 20260507221606 | 16 | 272 | 0.0 | 0.0 | 0.00 | 0.00 | 0.00 | 98 | 1007.4 |
| 20260507220405 | 16 | 273 | 3.2 | 3.2 | 0.00 | 0.00 | 0.00 | 98 | 1007.3 |
| 20260507215206 | 16 | 267 | 1.6 | 3.2 | 0.00 | 0.00 | 0.00 | 96 | 1007.6 |
| 20260507214006 | 16 | 260 | 0.0 | 1.6 | 0.00 | 0.00 | 0.00 | 95 | 1007.6 |
| 20260507212806 | 16 | 218 | 1.6 | 1.6 | 0.00 | 0.00 | 0.00 | 94 | 1007.6 |
| 20260507211605 | 16 | 222 | 1.6 | 3.2 | 0.00 | 0.00 | 0.00 | 95 | 1007.6 |
| 20260507210405 | 15 | 219 | 1.6 | 3.2 | 0.00 | 0.00 | 0.00 | 98 | 1007.2 |
| 20260507205205 | 15 | 284 | 4.8 | 8.0 | 0.00 | 0.00 | 0.00 | 99 | 1007.3 |
| 20260507204006 | 15 | 229 | 3.2 | 3.2 | 0.00 | 0.00 | 0.00 | 99 | 1007.3 |
| 20260507202807 | 15 | 257 | 1.6 | 3.2 | 0.00 | 0.00 | 0.00 | 99 | 1007.3 |
| 20260507201605 | 15 | 257 | 0.0 | 0.0 | 0.00 | 0.00 | 0.00 | 99 | 1007.3 |
| 20260507200405 | 15 | 257 | 1.6 | 3.2 | 0.00 | 0.00 | 0.00 | 99 | 1007.2 |
| 20260507195207 | 15 | 258 | 0.0 | 0.0 | 0.00 | 0.00 | 0.00 | 99 | 1007.3 |
| 20260507194006 | 15 | 258 | 1.6 | 1.6 | 0.00 | 0.00 | 0.00 | 99 | 1007.2 |
| 20260507192809 | 15 | 258 | 0.0 | 0.0 | 0.00 | 0.00 | 0.00 | 99 | 1007.4 |
| 20260507191605 | 15 | 258 | 1.6 | 3.2 | 0.00 | 0.00 | 0.00 | 99 | 1007.2 |
| 20260507190405 | 15 | 258 | 1.6 | 1.6 | 0.00 | 0.00 | 0.00 | 99 | 1007.2 |
| 20260507185207 | 15 | 258 | 1.6 | 3.2 | 0.00 | 0.00 | 0.00 | 99 | 1007.2 |
| 20260507184005 | 15 | 258 | 3.2 | 3.2 | 0.00 | 0.00 | 0.00 | 99 | 1007.2 |
| 20260507182806 | 15 | 258 | 0.0 | 0.0 | 0.00 | 0.00 | 0.00 | 99 | 1007.2 |
| 20260507181606 | 15 | 258 | 1.6 | 3.2 | 0.00 | 0.00 | 0.00 | 99 | 1007.3 |
| 20260507180405 | 15 | 192 | 1.6 | 3.2 | 0.00 | 0.00 | 0.00 | 99 | 1007.4 |
| 20260507175205 | 15 | 178 | 3.2 | 3.2 | 0.00 | 0.00 | 0.00 | 99 | 1007.4 |
| 20260507174005 | 15 | 263 | 3.2 | 3.2 | 0.00 | 0.00 | 0.00 | 99 | 1007.5 |
| 20260507172805 | 15 | 245 | 3.2 | 4.8 | 0.00 | 0.00 | 0.00 | 99 | 1007.6 |